Regional Weather Roundup
Issued by NWS Jackson, KY

Home | Current Version | Previous Version | Text Only | Print | Product List | Glossary Off
Versions: 1 2 3 4 5 6 7 8 9 10 11 12 13 14 15 16 17 18 19 20 21 22 23 24 25 26 27 28 29 30 31 32 33 34 35 36 37 38 39 40 41 42 43 44 45 46 47 48 49 50

000
ASUS43 KJKL 030610
RWRJKL

EAST KENTUCKY HOURLY WEATHER ROUNDUP
NATIONAL WEATHER SERVICE JACKSON KY
100 AM EST TUE MAR 03 2015

NOTE: "FAIR" INDICATES FEW OR NO CLOUDS BELOW 12,000 FEET WITH
NO SIGNIFICANT WEATHER AND/OR OBSTRUCTIONS TO VISIBILITY.

* THESE REPORTS ARE NOT UNDER NWS QUALITY CONTROL AND MAY NOT
  REPORT WEATHER SUCH AS PRECIPITATION AND FOG.

KYZ079-080-083-085-087-088-110-112-115-119-120-030700
...EASTERN KENTUCKY...

CITY           SKY/WX    TMP DP  RH WIND       PRES   REMARKS
JACKSON          N/A     31  18  58 NE5       30.23F WCI  26
6HR MIN TEMP:  31; 6HR MAX TEMP:  36;

LONDON           N/A     33  20  58 CALM      30.22F
6HR MIN TEMP:  33; 6HR MAX TEMP:  40;

SOMERSET*        N/A     32  21  64 CALM      30.25F
MONTICELLO*    MOCLDY    35  28  76 CALM      30.25F
6HR MIN TEMP:  33; 6HR MAX TEMP:  38;

MIDDLESBORO*   CLOUDY    33  32  95 CALM      30.25F
6HR MIN TEMP:  32; 6HR MAX TEMP:  39;

HAZARD APT*    CLEAR     32  21  64 CALM      30.23F
BLACK MTN*       N/A     39  10  30 S10         N/A  WCI  32
PIKEVILLE APT* CLEAR     32  19  59 E6        30.22F WCI  26
BIG SANDY*       N/A     30  20  66 NE7       30.24F WCI  23
6HR MIN TEMP:  30; 6HR MAX TEMP:  36;

MOREHEAD APT*    N/A     30  16  55 VRB6      30.29F WCI  24
$$

KYZ035-036-041-042-044-050-067-078-099-030700
...CENTRAL KENTUCKY...

CITY           SKY/WX    TMP DP  RH WIND       PRES   REMARKS
MT STERLING*     N/A     30  21  69 E6        30.26F WCI  24
FLEMING/MASON* CLEAR     27  18  69 E7        30.27F WCI  19
DANVILLE*        N/A     28  21  74 E3        30.25F
RICHMOND*        N/A     28  21  74 NE5       30.24F WCI  23
LEXINGTON        N/A     27  19  72 E7        30.25F WCI  19
6HR MIN TEMP:  27; 6HR MAX TEMP:  31;

FRANKFORT        N/A     27  17  66 E7        30.24F WCI  19
6HR MIN TEMP:  26; 6HR MAX TEMP:  33;

$$

KYZ091>093-OHZ055-061-077-WVZ005-015-034-035-042-030700
...SOUTHERN OHIO/WEST VIRGINIA...

CITY           SKY/WX    TMP DP  RH WIND       PRES   REMARKS
COVINGTON      CLOUDY    27  15  61 E7        30.25F WCI  19
COLUMBUS       CLOUDY    21  12  68 E3        30.32F
DAYTON         MOCLDY    23  14  68 E7        30.28F WCI  15
WILMINGTON       N/A     22  12  65 E8        30.26F WCI  12
HUNTINGTON       N/A     28  21  75 NE5       30.30F WCI  23
CHARLESTON       N/A     29  21  72 NE5       30.30F WCI  24
PINEVILLE*       N/A     31  27  85 MISG      30.29F
BECKLEY          N/A     30  15  53 SE8       30.23F WCI  22
BLUEFIELD        N/A     31  15  52 E6        30.24F WCI  25
$$

VAZ002-007-008-TNZ017-027-036-066-071-030700
...SOUTHWEST VIRGINIA/EAST TENNESSEE...

CITY           SKY/WX    TMP DP  RH WIND       PRES   REMARKS
WISE*            N/A     34  21  60 SE8       30.21F WCI  27
JONESVILLE*    MOCLDY    32  30  93 CALM      30.27F
ABINGDON*        N/A     38  25  59 E12       30.25S WCI  30
BRISTOL        CLOUDY    34  29  82 CALM      30.25F
KNOXVILLE      CLOUDY    41  37  86 CALM      30.25F
OAK RIDGE      CLOUDY    41  32  70 CALM      30.26F
CROSSVILLE     CLOUDY    42  29  59 SE6       30.20F
NASHVILLE      MOCLDY    43  31  62 CALM      30.21F
$$

...KEY TO REMARKS...
VSB - VISIBILITY IN MILES
WCI - WIND CHILL INDEX
HX  - HEAT INDEX

$$



USA.gov is the U.S. government's official web portal to all federal, state and local government web resources and services.